{"data":{"norad_id":42837,"epoch":"2026-05-25T00:20:43.492128Z","epoch_age_seconds":63969,"freshness":"FRESH","line1":"1 42837U 17042N   26145.01439227  .00014498  00000+0  49304-3 0  9992","line2":"2 42837  97.3815 325.7616 0010360  90.3017 269.9411 15.30497217484848","mean_motion":15.30497217,"eccentricity":0.001036,"inclination_deg":97.3815,"raan_deg":325.7616,"arg_perigee_deg":90.3017,"mean_anomaly_deg":269.9411,"bstar":0.00049304,"rev_number":48484,"period_min":94.087070790146,"perigee_km":467.22862313964,"apogee_km":481.42693015685,"semimajor_km":6852.4647766482,"source":"CELESTRAK","updated_at":"2026-05-25T13:38:13.528613Z"}}